This demonstration page uses our WeatherBlox Daily Observations layout. Learn more.

Left ArrowRight Arrow

39.08367, -84.50855

Hourly Observations for May 15, 2020

Temp ( °F °C ) Dew Point ( °F °C ) Humidity (%) Winds ( mph kmh ) Pressure ( in mb ) Visibility ( mi km ) Precip ( " mm )
12:53 am 00:53 Clear 60 15.6 56 13.3 86 86 SW 6 9 29.98 1015 10 16.0934 0 0
1:53 am 01:53 Clear 59 15 56 13.3 90 90 S 3 6 29.96 1015 10 16.0934 0 0
2:53 am 02:53 Clear 58 14.4 55 12.8 90 90 SW 5 7 29.96 1015 10 16.0934 0 0
3:53 am 03:53 Clear 61 16.1 55 12.8 81 81 SSW 8 13 29.95 1014 10 16.0934 0 0
4:53 am 04:53 Clear 62 16.7 56 13.3 80 80 S 10 17 29.96 1014 10 16.0934 0 0
5:53 am 05:53 Clear 62 16.7 56 13.3 80 80 SSW 7 11 29.96 1015 10 16.0934 0 0
6:53 am 06:53 Partly Cloudy 62 16.7 57 13.9 84 84 SSW 7 11 29.97 1015 10 16.0934 0 0
7:53 am 07:53 Mostly Sunny 65 18.3 58 14.4 78 78 S 9 15 29.97 1015 10 16.0934 0 0
8:53 am 08:53 Cloudy 67 19.4 58 14.4 73 73 S 9 15 29.97 1015 10 16.0934 0 0
9:53 am 09:53 Mostly Cloudy 71 21.7 60 15.6 68 68 SSW 10 17 29.96 1015 10 16.0934 0 0
10:53 am 10:53 Mostly Sunny 76 24.4 60 15.6 58 58 SW 24 39 29.95 1014 10 16.0934 0 0
11:53 am 11:53 Mostly Cloudy 74 23.3 59 15 60 60 SW 22 35 29.97 1015 10 16.0934 0 0
12:53 pm 12:53 Cloudy 74 23.3 59 15 60 60 SW 16 26 29.96 1015 10 16.0934 0 0
1:53 pm 13:53 Cloudy with Light Rain 68 20 63 17.2 84 84 WSW 20 31 29.97 1015 7 11.26538 0.01 0.254
2:11 pm 14:11 Cloudy with Light Rain 70 21.1 62 16.7 76 76 SSW 14 22 29.95 1014 10 16.0934 0.001 0.001
2:53 pm 14:53 Cloudy with Light Rain 71 21.7 63 17.2 76 76 SW 14 22 29.95 1014 10 16.0934 0.001 0.001
3:53 pm 15:53 Mostly Cloudy 73 22.8 63 17.2 71 71 SSW 12 19 29.95 1014 10 16.0934 0.001 0.001
4:53 pm 16:53 Cloudy with Light Rain 72 22.2 61 16.1 68 68 WSW 13 20 29.96 1014 10 16.0934 0.001 0.001
5:53 pm 17:53 Mostly Cloudy 74 23.3 63 17.2 69 69 WSW 8 13 29.96 1014 10 16.0934 0.001 0.001
6:53 pm 18:53 Mostly Cloudy 74 23.3 62 16.7 67 67 W 14 22 29.96 1015 10 16.0934 0 0
7:53 pm 19:53 Cloudy 73 22.8 62 16.7 69 69 W 7 11 29.97 1015 10 16.0934 0 0
8:53 pm 20:53 Partly Cloudy 70 21.1 62 16.7 76 76 Calm 29.97 1015 10 16.0934 0 0
9:53 pm 21:53 Clear 64 17.8 62 16.7 93 93 Calm 29.99 1016 10 16.0934 0 0
10:35 pm 22:35 Clear 61 16.1 61 16.1 100 100 Calm 30.01 1016 1.75 2.816345 0 0
10:42 pm 22:42 Clear 62 16.7 61 16.1 96 96 Calm 30 1016 8 12.87472 0 0
10:53 pm 22:53 Clear 60 15.6 60 15.6 100 100 Calm 30 1016 8 12.87472 0 0
10:55 pm 22:55 Clear 61 16.1 60 15.6 97 97 Calm 30.01 1016 1.5 2.41401 0 0
11:07 pm 23:07 Clear with Mist and Fog 61 16.1 61 16.1 100 100 Calm 30.01 1016 0.75 1.207005 0 0
11:29 pm 23:29 Clear with Mist and Fog 60 15.6 59 15 96 96 Calm 30.01 1016 2 3.21868 0 0
11:36 pm 23:36 Clear with Mist and Fog 61 16.1 61 16.1 100 100 Calm 30.01 1016 4 6.43736 0 0
11:40 pm 23:40 Clear with Mist and Fog 61 16.1 61 16.1 100 100 Calm 30.01 1016 1.75 2.816345 0 0
11:46 pm 23:46 Mostly Cloudy with Mist and Fog 59 15 59 15 100 100 Calm 30.01 1016 0.75 1.207005 0 0
11:53 pm 23:53 Mostly Cloudy with Fog 59 15 59 15 100 100 Calm 30.01 1016 0.25 0.402335 0 0

Powered by AerisWeather